TimeEDT,TemperatureF,Dew PointF,Humidity,Sea Level PressureIn,VisibilityMPH,Wind Direction,Wind SpeedMPH,Gust SpeedMPH,PrecipitationIn,Events,Conditions,WindDirDegrees,DateUTC
12:11 AM,50.0,46.0,86,29.88,0.5,ENE,9.2,-,N/A,Fog,Fog,70,2013-04-11 04:11:00
12:20 AM,48.0,45.0,89,29.87,0.2,NE,8.1,-,N/A,Fog,Fog,40,2013-04-11 04:20:00
12:53 AM,46.0,42.1,86,29.84,0.2,ENE,9.2,-,N/A,Fog,Fog,60,2013-04-11 04:53:00
2:05 AM,43.0,39.9,89,29.89,0.5,NNE,5.8,-,N/A,Fog,Fog,30,2013-04-11 06:05:00
2:33 AM,42.1,39.0,89,29.90,1.0,NNE,5.8,-,N/A,,Mist,20,2013-04-11 06:33:00
2:53 AM,42.1,37.9,85,29.91,1.8,NE,4.6,-,N/A,,Overcast,50,2013-04-11 06:53:00
3:02 AM,42.1,39.0,89,29.91,2.0,East,4.6,-,N/A,,Overcast,80,2013-04-11 07:02:00
3:36 AM,42.1,39.0,89,29.92,3.0,ENE,4.6,-,0.01,Rain,Light Rain,60,2013-04-11 07:36:00
3:53 AM,42.1,37.9,85,29.92,4.0,ENE,4.6,-,0.02,Rain,Light Rain,60,2013-04-11 07:53:00
4:08 AM,42.1,37.9,85,29.92,6.0,East,4.6,-,0.02,Rain,Light Rain,80,2013-04-11 08:08:00
4:36 AM,42.1,37.9,85,29.90,10.0,NE,8.1,-,0.05,Rain,Light Rain,50,2013-04-11 08:36:00
4:53 AM,42.1,37.9,85,29.90,10.0,ENE,4.6,-,0.05,Rain,Light Rain,60,2013-04-11 08:53:00
5:53 AM,41.0,37.9,89,29.88,10.0,East,6.9,-,0.00,,Overcast,80,2013-04-11 09:53:00
6:29 AM,41.0,37.0,86,29.89,5.0,NE,8.1,-,N/A,,Overcast,50,2013-04-11 10:29:00
6:53 AM,39.9,37.0,89,29.88,6.0,ENE,9.2,-,N/A,,Overcast,70,2013-04-11 10:53:00
7:53 AM,41.0,37.0,86,29.90,9.0,ESE,10.4,-,N/A,,Overcast,110,2013-04-11 11:53:00
8:53 AM,41.0,37.0,86,29.92,1.8,ESE,8.1,-,N/A,,Overcast,110,2013-04-11 12:53:00
9:39 AM,41.0,37.0,86,29.91,0.8,East,8.1,-,N/A,,Overcast,80,2013-04-11 13:39:00
9:48 AM,41.0,37.4,87,29.92,1.0,East,6.9,-,N/A,,Overcast,80,2013-04-11 13:48:00
9:53 AM,41.0,37.0,86,29.92,1.0,ENE,9.2,-,N/A,,Overcast,70,2013-04-11 13:53:00
10:44 AM,41.0,37.9,89,29.93,1.2,ENE,6.9,-,N/A,,Overcast,60,2013-04-11 14:44:00
11:02 AM,41.0,37.0,86,29.95,1.0,NNE,10.4,-,N/A,,Overcast,30,2013-04-11 15:02:00
11:37 AM,39.9,36.0,86,29.95,1.5,ENE,10.4,18.4,N/A,,Overcast,70,2013-04-11 15:37:00
11:53 AM,39.9,35.1,83,29.94,1.8,East,12.7,20.7,N/A,,Haze,80,2013-04-11 15:53:00
12:11 PM,39.9,36.0,86,29.92,2.0,East,16.1,24.2,N/A,,Overcast,80,2013-04-11 16:11:00
1:00 PM,41.0,37.0,86,29.89,3.0,East,13.8,23.0,N/A,,Overcast,90,2013-04-11 17:00:00
1:53 PM,41.0,37.0,86,29.92,4.0,ENE,10.4,-,N/A,,Overcast,70,2013-04-11 17:53:00
2:43 PM,39.0,35.1,86,29.91,2.5,NNE,8.1,20.7,N/A,,Overcast,30,2013-04-11 18:43:00
2:51 PM,39.2,35.6,87,29.90,3.0,ENE,11.5,17.3,N/A,,Overcast,70,2013-04-11 18:51:00
2:53 PM,39.0,35.1,86,29.93,3.0,ENE,11.5,-,N/A,,Overcast,70,2013-04-11 18:53:00
3:02 PM,39.0,34.0,82,29.88,2.5,East,12.7,19.6,N/A,,Haze,80,2013-04-11 19:02:00
3:19 PM,39.0,35.1,86,29.90,3.0,ENE,11.5,-,N/A,,Overcast,60,2013-04-11 19:19:00
3:53 PM,39.0,34.0,82,29.94,4.0,ENE,8.1,-,N/A,,Haze,70,2013-04-11 19:53:00
4:53 PM,37.9,34.0,86,29.93,7.0,East,12.7,-,0.00,Rain,Light Rain,90,2013-04-11 20:53:00
5:16 PM,39.0,34.0,82,29.87,7.0,East,8.1,-,0.00,,Overcast,90,2013-04-11 21:16:00
5:53 PM,39.0,34.0,82,29.88,10.0,East,12.7,20.7,0.00,,Overcast,80,2013-04-11 21:53:00
6:42 PM,39.0,33.1,79,29.86,10.0,East,8.1,17.3,N/A,,Overcast,90,2013-04-11 22:42:00
6:53 PM,39.0,33.1,79,29.90,10.0,East,9.2,19.6,N/A,,Overcast,80,2013-04-11 22:53:00
7:53 PM,39.0,33.1,79,29.88,10.0,East,8.1,-,N/A,,Overcast,100,2013-04-11 23:53:00
8:53 PM,39.0,33.1,79,29.89,10.0,ENE,8.1,-,N/A,,Overcast,70,2013-04-12 00:53:00
9:53 PM,37.9,34.0,86,29.87,3.0,East,10.4,-,N/A,,Overcast,90,2013-04-12 01:53:00
10:07 PM,37.9,34.0,86,29.83,2.5,East,11.5,-,N/A,,Overcast,100,2013-04-12 02:07:00
10:24 PM,39.0,35.1,86,29.81,1.5,East,12.7,-,N/A,,Overcast,100,2013-04-12 02:24:00
10:50 PM,39.2,35.6,87,29.81,1.8,East,9.2,19.6,N/A,,Overcast,80,2013-04-12 02:50:00
10:53 PM,39.0,36.0,89,29.84,1.8,East,10.4,19.6,N/A,,Overcast,80,2013-04-12 02:53:00
11:53 PM,39.9,36.0,86,29.80,2.0,East,12.7,-,N/A,,Overcast,100,2013-04-12 03:53:00